COSMOS 1261 DEB, 35507

Orbit data source: Space-Track

COSMOS 1261 DEB, 35507 is space debris originally from a launch on Tue, 31 Mar 1981 UTC launched from the Plesetsk Missile And Space Complex (PKMTR). Debris objects in space refer to the collection of defunct objects orbiting the Earth. Examples of debris include non-operational satellites, rocket bodies, and fragments generated from explosions, collisions, or faulty payload assembly.

Loading next visibility...
COSMOS 1261 DEB details
Identifier
35507, 1981-031N
Orbit
Molniya
Last TLE update1 day ago
Origin
Flag of CISGUKOS (CIS)
ManufacturerUnknown
MissionSpacecraft
Bus & MotorUnknown
MassUnknown
Launch date (UTC)
1981-03-31 (44 years ago)
Launch vehicleUnknown
Launch site
Plesetsk Missile And Space Complex (PKMTR)
Object type
Payload
Rocket body
Debris
Shape & HBRUnknown
Radar Cross SectionMedium (>0.1 m² and <1 m²)

Expand to show TLE details & history

TLE from 1 day ago
0 COSMOS 1261 DEB
1 35507U 81031N   25034.79080774 -.00000764  00000-0  00000-0 0  9997
2 35507  63.6324  14.1828 7299374  39.1515 355.4787  2.01791317 88360
Epoch: 2025-02-03T18:58Z
Definitive object data (Epoch: 2025-02-03T18:58:45.788Z)
Latitude0.00013°
Longitude-44.76098°
Altitude1,530.685 km
Speed9.26 km/s
True Right ascension00h 56m 32s
True Declination0° 00' 00"
Sunlit
Object was in daylight at TLE epoch
Visualization TLE readout
Latitude19.0264°
Longitude-35.1636°
Altitude930.361 km
Speed9.698 km/s
Apparent Right ascension23h 39m 09s
Apparent Declination-10° 01' 22"
Sunlit
Object is in daylight
Visualization observer readout
Local Sidereal Time08:46:53
Azimuth296.015° NW
Elevation-41.566°
Doppler factor1
Orbital elements
Apogee altitude39,381.233 km
Perigee altitude765.413 km
Semi-major axis26,451.46 km
Eccentricity0.7299374
Inclination63.6324°
RAAN14.1828°
Arg. of periapsis39.1515°
True anomaly320.46261°
Mean anomaly355.4787°
Eccentric anomaly343.83559°
Mean motion0.50451 °/min
BSTARUnknown
Orbital period713.57 mins
Loading maneuver chart data...
Loading historical data...
Loading historical data...
Loading historical data...
Loading historical data...
Loading historical data...
Loading historical data...
Loading historical data...

COSMOS 1261 DEB Visibility forecast

Observer location: undefined°, undefined

Span
Click to sort rows by Start time (UTC) header in descending order
Start Az.
Max El. time (UTC)
Max El. Az.
Max El.
End time (UTC)
End Az.
318 mins2025-02-05 07:00:40.504Z332.347° NNW2025-02-05 07:13:40.504Z51.537° ENE38.912°2025-02-05 12:18:40.504Z183.19° SSW
|